Home > Weather > Drummondville > Past weeks

Flag for Canada Weather for the Past 2 Weeks in Drummondville, Quebec, Canada

Now
19 °F

Cold.


Feels Like: 8 °F
Forecast: 15 / 23 °F
Wind: 9 mph from Northeast

Location: Nicolet

Current Time: Feb 8, 2016 at 2:36:09 PM

Latest Report: Feb 8, 2016 at 2:00 PM


Visibility: N/A

Pressure: 29.98 "Hg

Humidity: 51%

Dew point: 4 °F

Location of DrummondvilleLocation

Historic Weather in Drummondville — Graph

°F

Drummondville Temperature Yesterday

Maximum temperature yesterday: 33 °F (at 12:00 AM)
Minimum temperature yesterday: 10 °F (at 11:00 AM)
Average temperature yesterday: 19 °F

High & Low Weather Summary for the Past Weeks

 TemperatureHumidityPressure
High44 °F (Feb 1, 8:00 AM)100% (Feb 3, 4:00 PM)30.43 "Hg (Feb 3, 4:00 PM)
Low10 °F (Feb 7, 11:00 AM)34% (Feb 7, 3:00 PM)29.32 "Hg (Feb 1, 6:00 AM)
Average25 °F79%29.93 "Hg
* Reported Jan 24 1:00 PM — Feb 8 1:00 PM, Drummondville, Weather by CustomWeather, © 2016

Note: Actual official high and low records may vary slightly from our data, if they occured in-between our weather recording intervals... More about our weather records

Advertising

Drummondville Weather History for the Previous 24 Hours

 ConditionsComfort  
Time TempWeatherWind HumidityBarometerVisibility
1:00 PM
Mon, Feb 8
18 °FCold.10 mph46%30.01 "HgN/A
12:00 PM18 °FCold.9 mph48%30.02 "HgN/A
11:00 AM16 °FCold.10 mph50%30.06 "HgN/A
10:00 AM14 °FCold.12 mph53%30.09 "HgN/A
9:00 AM12 °FCold.9 mph53%30.09 "HgN/A
8:00 AM12 °FCold.13 mph49%30.09 "HgN/A
7:00 AM12 °FCold.12 mph49%30.09 "HgN/A
6:00 AM13 °FCold.12 mph52%30.09 "HgN/A
5:00 AM14 °FCold.12 mph55%30.10 "HgN/A
4:00 AM15 °FCold.12 mph46%30.12 "HgN/A
3:00 AM15 °FCold.12 mph44%30.12 "HgN/A
2:00 AM16 °FCold.12 mph46%30.15 "HgN/A
1:00 AM15 °FCold.8 mph51%30.16 "HgN/A
12:00 AM16 °FCold.8 mph48%30.20 "HgN/A
11:00 PM
Sun, Feb 7
16 °FCold.8 mph53%30.21 "HgN/A
10:00 PM16 °FCold.7 mph52%30.22 "HgN/A
9:00 PM16 °FCold.9 mph50%30.22 "HgN/A
8:00 PM17 °FCold.8 mph48%30.24 "HgN/A
7:00 PM16 °FCold.6 mph49%30.26 "HgN/A
6:00 PM16 °FCold.7 mph44%30.27 "HgN/A
5:00 PM15 °FCold.3 mph40%30.28 "HgN/A
4:00 PM14 °FCold.5 mph36%30.28 "HgN/A
3:00 PM15 °FCold.6 mph34%30.27 "HgN/A
2:00 PM14 °FCold.6 mph39%30.25 "HgN/A
Weather by CustomWeather, © 2016

See weather overviewHow to use our weather pages